Regional Weather Roundup
Issued by NWS

Home | Current Version | Previous Version | Graphics & Text | Print | Product List | Glossary Off
Versions: 1 2 3 4 5 6 7 8 9 10 11 12 13 14 15 16 17 18 19 20 21 22 23 24 25 26 27 28 29 30 31 32 33 34 35 36 37 38 39 40 41 42 43 44 45 46 47 48 49 50

000
ASUS43 KLMK 312310
RWRKY
KENTUCKY REGIONAL WEATHER ROUNDUP
NATIONAL WEATHER SERVICE LOUISVILLE KY
600 PM EST SAT JAN 31 2015

NOTE "FAIR" INDICATES FEW OR NO CLOUDS BELOW 12,000 FEET
WITH NO SIGNIFICANT WEATHER AND/OR OBSTRUCTIONS TO VISIBILITY.

KYZ001>023-026-027-061>063-070>075-010000-
WESTERN AND SOUTH CENTRAL KENTUCKY

CITY           SKY/WX    TMP DP  RH WIND       PRES   REMARKS
PADUCAH        CLOUDY    43  25  49 CALM      30.25F
HENDERSON      CLOUDY    41  23  48 CALM      30.27R
OWENSBORO      CLOUDY    41  25  53 SE6       30.28S
HOPKINSVILLE   CLOUDY    46  19  34 S3        30.26R
BOWLING GREEN  CLOUDY    43  22  43 NE5       30.28F
GLASGOW        CLOUDY    41  21  44 CALM      30.29S
$$

KYZ024-025-028>034-038-045-046-053-010000-
NORTH CENTRAL KENTUCKY

CITY           SKY/WX    TMP DP  RH WIND       PRES   REMARKS
LOUISVILLE/SDF CLOUDY    41  20  43 SW3       30.29F
LOUISVILLE/LOU CLOUDY    41  20  43 SW3       30.29F
FORT KNOX      CLOUDY    40  21  45 SE2       30.27R
$$

KYZ035>037-039>044-047>052-055>060-089>105-010000-
NORTHEAST KENTUCKY

CITY           SKY/WX    TMP DP  RH WIND       PRES   REMARKS
LEXINGTON      CLOUDY    38  18  44 SW6       30.30R WCI  33
COVINGTON      CLOUDY    37  19  48 CALM      30.26S
FRANKFORT      CLOUDY    38  19  46 SW8       30.29R WCI  32
$$

KYZ054-064>069-076>088-106>120-010000-
SOUTHEAST KENTUCKY

CITY           SKY/WX    TMP DP  RH WIND       PRES   REMARKS
JACKSON        MOCLDY    38  12  34 CALM      30.28S
LONDON         CLOUDY    42   7  23 CALM      30.29S
SOMERSET       CLOUDY    41  14  33 CALM      30.31S
MIDDLESBORO    CLOUDY    43  10  26 CALM      30.30R
MONTICELLO     CLOUDY    41  19  41 CALM      30.32S
$$




USA.gov is the U.S. government's official web portal to all federal, state and local government web resources and services.